FENGYUN 1C DEB

Satellite information

Favourite Embed

Satellite Type and Status

DEBRISIN ORBIT

Key statistics

Satellite FENGYUN 1C DEB at a glance.

Uptime

9493

Days in orbit

Revolutions

≈ 13.9

Per day

Orbit

SSO

Sun Synchronous Orbit

Inclination

98.6

Latest

Satellite identification and parameters

Extended collection of information and parameters for FENGYUN 1C DEB.

Object identification

Identified? True

Debris? True

Object name: FENGYUN 1C DEB

International designator: 1999-025PE

Object number (NORAD): 30053

Object ID (CCSDS): 30053

Country: PEOPLES REPUBLIC OF CHINA (PRC)

Current information (Y/N): Y

RCS size: SMALL

Orbital parameters

Period: 103.471 minutes

Inclination: 98.5776 deg

SMA: 7300.818 km

Apoapsis: 1170.413 km

Periapsis: 674.953 km

RAAN: 314.3347 deg

Eccentricy: 0.0339318

Argument of periapsis: 231.3875 deg

Mean anomaly: 156.349 deg

Mean motion: 13.9169946 rev/day

Mean motion (dot): 0.00005457 rev/day2

B* drag term: 0.0027041 1/REarth

Two-line elements (TLE)

Creation date: May 6, 2025, 3:54 a.m.

Reference frame: TEME

Reference center: EARTH

Epoch: May 5, 2025, 11:07 a.m. UTC

TLE line 0: 0 FENGYUN 1C DEB

TLE line 1: 1 30053U 99025PE 25125.46346925 .00005457 00000-0 27041-2 0 9997

TLE line 2: 2 30053 98.5776 314.3347 0339318 231.3875 156.3490 13.91699460919067

Live tracking on map

Real-time ground track for satellite FENGYUN 1C DEB.

In-orbit conjunctions

A list of the most updated potential collisions computed for object FENGYUN 1C DEB.

Target Orbit TCA Probability of collision Miss distance Type
ERS 1 SSO 2024-12-07 07:15:25 0.0004226136 302.0 (m) PAYLOAD
CZ-6A DEB LEO 2024-11-24 09:00:50 0.000319673 474.0 (m) DEBRIS
COSMOS 1816 LEO 2024-11-17 18:15:04 0.0003479315 209.0 (m) PAYLOAD

Associated space launch

Chinese polar orbiting meteorological satellite

FENGYUN 1C DEB was lifted into orbit during the mission ‘Long March 4B | Feng Yun 1C’, on board a Long March 4B space rocket.

The launch took place on May 10, 1999, 1:33 a.m. from Launch Complex 7.

For more information about the launch, click the button.

Launch to space Long March 4B | Feng Yun 1C
Long March 4B | Feng Yun 1C

Agency: N/A

Status: Launch Successful

Launch date: May 10, 1999, 1:33 a.m. UTC

Rocket: Long March 4B

Launch pad: Launch Complex 7

Location: Taiyuan Satellite Launch Center, People's Republic of China

...

Latest news about this satellite

There are no fresh news available about this satellite. Check back as we update our databases every day.


Newsletter sign-up

Weekly statistics, charts and insights to help you stay on top of the space industry.